Location: Al Mulaqqa?ah
(24.1833°N, 32.8833°E)
Time: 21:11:54
(UTC+00:00)

Okean-O - Pass Details

Date: 26 September 2021
Orbit: 638 x 641 km, 98.2° (Epoch: 25 October)

Event Time Altitude Azimuth Distance (km) Brightness Sun altitude
Exits shadow 16:42:05 21° 120° (ESE) 1,420 3.9 -14.8°
Maximum altitude 16:44:10 32° 74° (ENE) 1,099 3.3 -15.3°
Drops below altitude 10° 16:48:05 10° 11° (NNE) 2,031 5.1 -16.2°
Sets 16:50:28 0° 2° (N) 2,942 6.1 -16.7°
